User: anonymous   Login
Location: Unspecified
(0.0000°N, 0.0000°E)
Time: 10:05:59
(UTC+00:00)
Language:

GHGSAT-C3 - Orbit

View from above orbital plane
View from above orbital plane
View from above satellite
View from above satellite

Ground track
Ground track

The orbit is defined by the following mean orbital elements,

1 52737U          26145.54165580 +.00000000 +00000-0 +18989-3 0 00007
2 52737  97.6566 290.3589 0006052 188.3886 171.7256 15.34019782    05
Epoch (UTC): 25 May 2026 12:59:59
Eccentricity: 0.0006052
inclination: 97.6566°
perigee height: 460 km
apogee height: 468 km
right ascension of ascending node: 290.3589°
argument of perigee: 188.3886°
revolutions per day: 15.34019782
mean anomaly at epoch: 171.7256°

The dashed part of the orbit path shows where the satellite is in the earth's shadow,  

DLR